Time,TemperatureF,DewpointF,PressureIn,WindDirection,WindDirectionDegrees,WindSpeedMPH,WindSpeedGustMPH,Humidity,HourlyPrecipIn,Conditions,Clouds,dailyrainin,SoftwareType,DateUTC
2013-08-16 00:13:00,58.0,54.0,30.11,SSW,192,0.0,0.0,88,0.00,,,0.00,,2013-08-16 04:13:00,
2013-08-16 00:23:00,58.0,55.0,30.11,SSW,192,0.0,0.0,89,0.00,,,0.00,,2013-08-16 04:23:00,
2013-08-16 00:42:00,59.0,55.0,30.11,SSW,192,0.0,0.0,86,0.00,,,0.00,,2013-08-16 04:42:00,
2013-08-16 00:53:00,59.0,54.0,30.11,SSW,192,0.0,0.0,85,0.00,,,0.00,,2013-08-16 04:53:00,
2013-08-16 01:12:00,58.0,54.0,30.11,SSW,192,0.0,0.0,85,0.00,,,0.00,,2013-08-16 05:12:00,
2013-08-16 01:22:00,57.0,53.0,30.11,SSW,192,0.0,0.0,86,0.00,,,0.00,,2013-08-16 05:22:00,
2013-08-16 01:42:00,57.0,53.0,30.11,SSW,192,0.0,0.0,88,0.00,,,0.00,,2013-08-16 05:42:00,
2013-08-16 01:59:00,56.0,53.0,30.11,SSW,192,0.0,0.0,89,0.00,,,0.00,,2013-08-16 05:59:00,
2013-08-16 03:00:00,56.0,53.0,30.11,SSW,192,0.0,0.0,91,0.00,,,0.00,,2013-08-16 07:00:00,
2013-08-16 03:11:00,56.0,53.0,30.11,SSW,192,0.0,0.0,91,0.00,,,0.00,,2013-08-16 07:11:00,
2013-08-16 03:21:00,56.0,53.0,30.11,SSW,192,0.0,0.0,91,0.00,,,0.00,,2013-08-16 07:21:00,
2013-08-16 03:42:00,56.0,53.0,30.11,SSW,192,0.0,0.0,90,0.00,,,0.00,,2013-08-16 07:42:00,
2013-08-16 03:52:00,56.0,53.0,30.12,SSW,192,0.0,0.0,89,0.00,,,0.00,,2013-08-16 07:52:00,
2013-08-16 04:11:00,56.0,53.0,30.12,SSW,192,0.0,0.0,90,0.00,,,0.00,,2013-08-16 08:11:00,
2013-08-16 04:21:00,56.0,53.0,30.12,SSW,192,0.0,0.0,90,0.00,,,0.00,,2013-08-16 08:21:00,
2013-08-16 04:42:00,57.0,54.0,30.12,SSW,192,0.0,0.0,89,0.00,,,0.00,,2013-08-16 08:42:00,
2013-08-16 04:52:00,57.0,54.0,30.12,SSW,192,0.0,0.0,89,0.00,,,0.00,,2013-08-16 08:52:00,
2013-08-16 05:11:00,57.0,54.0,30.12,SSW,192,0.0,0.0,89,0.00,,,0.00,,2013-08-16 09:11:00,
2013-08-16 05:21:00,57.0,54.0,30.12,SSW,192,0.0,0.0,89,0.00,,,0.00,,2013-08-16 09:21:00,
2013-08-16 05:42:00,57.0,53.0,30.11,SSW,192,0.0,0.0,87,0.00,,,0.00,,2013-08-16 09:42:00,
2013-08-16 05:53:00,57.0,54.0,30.11,SSW,192,0.0,0.0,89,0.00,,,0.00,,2013-08-16 09:53:00,
2013-08-16 06:13:00,57.0,54.0,30.11,SSW,192,0.0,0.0,90,0.00,,,0.00,,2013-08-16 10:13:00,
2013-08-16 06:23:00,57.0,54.0,30.11,SSW,192,0.0,0.0,89,0.00,,,0.00,,2013-08-16 10:23:00,
2013-08-16 06:42:00,56.0,53.0,30.11,SSW,192,0.0,0.0,90,0.00,,,0.00,,2013-08-16 10:42:00,
2013-08-16 06:52:00,55.0,53.0,30.11,SSW,192,0.0,0.0,92,0.00,,,0.00,,2013-08-16 10:52:00,
2013-08-16 07:12:00,55.0,53.0,30.12,SSW,192,0.0,0.0,92,0.00,,,0.00,,2013-08-16 11:12:00,
2013-08-16 07:22:00,55.0,53.0,30.12,SSW,192,0.0,0.0,92,0.00,,,0.00,,2013-08-16 11:22:00,
2013-08-16 07:42:00,55.0,53.0,30.12,SSW,192,0.0,0.0,92,0.00,,,0.00,,2013-08-16 11:42:00,
2013-08-16 07:52:00,55.0,53.0,30.13,SSW,192,0.0,0.0,92,0.00,,,0.00,,2013-08-16 11:52:00,
2013-08-16 08:12:00,55.0,53.0,30.13,SSW,192,0.0,0.0,93,0.00,,,0.00,,2013-08-16 12:12:00,
2013-08-16 08:21:00,56.0,54.0,30.13,SSW,192,0.0,0.0,94,0.00,,,0.00,,2013-08-16 12:21:00,
2013-08-16 08:42:00,59.0,56.0,30.13,SSW,192,0.0,0.0,91,0.00,,,0.00,,2013-08-16 12:42:00,
2013-08-16 08:52:00,60.0,57.0,30.14,SSW,192,0.0,0.0,89,0.00,,,0.00,,2013-08-16 12:52:00,
2013-08-16 09:11:00,61.0,58.0,30.14,WSW,239,0.0,0.0,90,0.00,,,0.00,,2013-08-16 13:11:00,
2013-08-16 09:22:00,62.0,58.0,30.15,North,360,1.0,4.0,86,0.00,,,0.00,,2013-08-16 13:22:00,
2013-08-16 09:42:00,63.0,58.0,30.15,NNE,18,1.0,6.0,83,0.00,,,0.00,,2013-08-16 13:42:00,
2013-08-16 09:53:00,62.0,57.0,30.15,NE,36,0.0,5.0,83,0.00,,,0.00,,2013-08-16 13:53:00,
2013-08-16 10:11:00,63.0,57.0,30.16,NE,42,1.0,3.0,82,0.00,,,0.00,,2013-08-16 14:11:00,
2013-08-16 10:22:00,65.0,58.0,30.16,ENE,63,2.0,5.0,78,0.00,,,0.00,,2013-08-16 14:22:00,
2013-08-16 10:42:00,67.0,58.0,30.16,ENE,70,2.0,7.0,73,0.00,,,0.00,,2013-08-16 14:42:00,
2013-08-16 10:52:00,67.0,58.0,30.16,East,80,2.0,5.0,73,0.00,,,0.00,,2013-08-16 14:52:00,
2013-08-16 11:12:00,68.0,57.0,30.16,ENE,61,2.0,7.0,69,0.00,,,0.00,,2013-08-16 15:12:00,
2013-08-16 11:22:00,69.0,58.0,30.16,East,93,2.0,5.0,68,0.00,,,0.00,,2013-08-16 15:22:00,
2013-08-16 11:43:00,70.0,59.0,30.16,ENE,61,2.0,5.0,67,0.00,,,0.00,,2013-08-16 15:43:00,
2013-08-16 11:56:00,71.0,58.0,30.16,ENE,71,2.0,5.0,64,0.00,,,0.00,,2013-08-16 15:56:00,
2013-08-16 12:13:00,71.0,57.0,30.16,North,5,3.0,6.0,62,0.00,,,0.00,,2013-08-16 16:13:00,
2013-08-16 12:23:00,72.0,58.0,30.15,ENE,71,2.0,5.0,62,0.00,,,0.00,,2013-08-16 16:23:00,
2013-08-16 12:44:00,72.0,58.0,30.16,NNE,31,4.0,8.0,61,0.00,,,0.00,,2013-08-16 16:44:00,
2013-08-16 12:57:00,73.0,58.0,30.15,NE,49,2.0,5.0,60,0.00,,,0.00,,2013-08-16 16:57:00,
2013-08-16 13:13:00,73.0,58.0,30.15,NE,45,0.0,8.0,60,0.00,,,0.00,,2013-08-16 17:13:00,
2013-08-16 13:28:00,74.0,57.0,30.15,NNE,26,3.0,8.0,56,0.00,,,0.00,,2013-08-16 17:28:00,
2013-08-16 13:47:00,74.0,56.0,30.15,East,88,2.0,5.0,54,0.00,,,0.00,,2013-08-16 17:47:00,
2013-08-16 14:00:00,74.0,56.0,30.14,North,5,4.0,11.0,54,0.00,,,0.00,,2013-08-16 18:00:00,
2013-08-16 14:15:00,74.0,56.0,30.14,East,89,0.0,5.0,53,0.00,,,0.00,,2013-08-16 18:15:00,
2013-08-16 14:28:00,74.0,57.0,30.14,East,98,2.0,5.0,55,0.00,,,0.00,,2013-08-16 18:28:00,
2013-08-16 14:50:00,-999.0,-99.9,30.14,ENE,76,1.0,7.0,53,0.00,,,0.00,,2013-08-16 18:50:00,
2013-08-16 15:14:00,75.0,57.0,30.14,ENE,63,0.0,6.0,53,0.00,,,0.00,,2013-08-16 19:14:00,
2013-08-16 15:25:00,74.0,55.0,30.13,NE,38,1.0,4.0,52,0.00,,,0.00,,2013-08-16 19:25:00,
2013-08-16 15:46:00,76.0,57.0,30.13,NNE,22,1.0,6.0,51,0.00,,,0.00,,2013-08-16 19:46:00,
2013-08-16 15:55:00,76.0,58.0,30.13,East,80,1.0,7.0,54,0.00,,,0.00,,2013-08-16 19:55:00,
2013-08-16 16:11:00,76.0,57.0,30.13,NE,35,1.0,4.0,51,0.00,,,0.00,,2013-08-16 20:11:00,
2013-08-16 16:23:00,76.0,57.0,30.13,East,80,2.0,7.0,51,0.00,,,0.00,,2013-08-16 20:23:00,
2013-08-16 16:44:00,75.0,56.0,30.13,ENE,66,0.0,3.0,51,0.00,,,0.00,,2013-08-16 20:44:00,
2013-08-16 16:52:00,76.0,55.0,30.12,East,96,1.0,3.0,49,0.00,,,0.00,,2013-08-16 20:52:00,
2013-08-16 17:11:00,76.0,57.0,30.12,ESE,105,1.0,7.0,51,0.00,,,0.00,,2013-08-16 21:11:00,
2013-08-16 17:25:00,76.0,55.0,30.12,ENE,78,2.0,4.0,48,0.00,,,0.00,,2013-08-16 21:25:00,
2013-08-16 17:40:00,-999.0,-99.9,30.12,ESE,116,4.0,8.0,-999,0.00,,,0.00,,2013-08-16 21:40:00,
2013-08-16 17:53:00,75.0,57.0,30.12,East,98,1.0,5.0,53,0.00,,,0.00,,2013-08-16 21:53:00,
2013-08-16 18:13:00,75.0,57.0,30.12,ESE,115,2.0,5.0,54,0.00,,,0.00,,2013-08-16 22:13:00,
2013-08-16 18:24:00,75.0,60.0,30.12,SE,128,5.0,8.0,59,0.00,,,0.00,,2013-08-16 22:24:00,
2013-08-16 18:43:00,74.0,60.0,30.12,SE,126,3.0,6.0,61,0.00,,,0.00,,2013-08-16 22:43:00,
2013-08-16 18:52:00,73.0,60.0,30.13,SSE,159,0.0,3.0,63,0.00,,,0.00,,2013-08-16 22:52:00,
2013-08-16 19:12:00,74.0,60.0,30.13,SSE,167,0.0,5.0,61,0.00,,,0.00,,2013-08-16 23:12:00,
2013-08-16 19:23:00,75.0,60.0,30.13,SE,142,0.0,4.0,59,0.00,,,0.00,,2013-08-16 23:23:00,
2013-08-16 19:42:00,74.0,60.0,30.13,SE,136,0.0,5.0,62,0.00,,,0.00,,2013-08-16 23:42:00,
2013-08-16 19:52:00,73.0,59.0,30.12,SE,146,1.0,5.0,62,0.00,,,0.00,,2013-08-16 23:52:00,
2013-08-16 20:12:00,72.0,60.0,30.13,SE,140,0.0,5.0,65,0.00,,,0.00,,2013-08-17 00:12:00,
2013-08-16 20:21:00,71.0,59.0,30.13,SE,141,0.0,2.0,66,0.00,,,0.00,,2013-08-17 00:21:00,
2013-08-16 20:42:00,70.0,59.0,30.13,SE,141,0.0,1.0,68,0.00,,,0.00,,2013-08-17 00:42:00,
2013-08-16 20:52:00,69.0,59.0,30.14,SE,141,0.0,1.0,71,0.00,,,0.00,,2013-08-17 00:52:00,
2013-08-16 21:11:00,69.0,60.0,30.14,SE,142,0.0,0.0,73,0.00,,,0.00,,2013-08-17 01:11:00,
2013-08-16 21:21:00,68.0,60.0,30.14,SE,142,0.0,0.0,76,0.00,,,0.00,,2013-08-17 01:21:00,
2013-08-16 21:42:00,66.0,59.0,30.14,SE,142,0.0,0.0,78,0.00,,,0.00,,2013-08-17 01:42:00,
2013-08-16 21:52:00,65.0,59.0,30.15,SE,141,0.0,0.0,82,0.00,,,0.00,,2013-08-17 01:52:00,
2013-08-16 22:11:00,64.0,59.0,30.15,SE,141,0.0,0.0,84,0.00,,,0.00,,2013-08-17 02:11:00,
2013-08-16 22:21:00,63.0,58.0,30.16,SE,141,0.0,0.0,85,0.00,,,0.00,,2013-08-17 02:21:00,
2013-08-16 22:42:00,62.0,58.0,30.16,SE,142,0.0,0.0,86,0.00,,,0.00,,2013-08-17 02:42:00,
2013-08-16 22:52:00,61.0,57.0,30.16,SE,142,0.0,0.0,86,0.00,,,0.00,,2013-08-17 02:52:00,
2013-08-16 23:11:00,61.0,57.0,30.16,SE,142,0.0,0.0,87,0.00,,,0.00,,2013-08-17 03:11:00,
2013-08-16 23:22:00,60.0,56.0,30.16,SE,142,0.0,0.0,88,0.00,,,0.00,,2013-08-17 03:22:00,
2013-08-16 23:43:00,60.0,57.0,30.16,SE,141,0.0,0.0,89,0.00,,,0.00,,2013-08-17 03:43:00,
2013-08-16 23:53:00,59.0,56.0,30.16,SE,141,0.0,0.0,90,0.00,,,0.00,,2013-08-17 03:53:00,